This is the latest recevied weather packets stored in our database for station/object K9MWD. If no packets are shown the sender has not sent any weather packets the latest 10 day(s).
| Time | Temp. | Humidity | Pressure | Rain* | Wind** | Luminosity | Snow |
|---|---|---|---|---|---|---|---|
| 1787851085 | 35° C | 50% | 1015.6 hPa | 0 mm | - | 815 W/m² | - |
| 1787850781 | 35° C | 51% | 1015.5 hPa | 0 mm | - | 796 W/m² | - |
| 1787850476 | 35° C | 50% | 1015.6 hPa | 0 mm | - | 801 W/m² | - |
| 1787850171 | 35° C | 51% | 1015.9 hPa | 0 mm | - | 798 W/m² | - |
| 1787849866 | 34.44° C | 51% | 1015.8 hPa | 0 mm | - | 775 W/m² | - |
| 1787849567 | 35° C | 53% | 1015.9 hPa | 0 mm | - | 777 W/m² | - |
| 1787849260 | 35° C | 52% | 1015.6 hPa | 0 mm | - | 764 W/m² | - |
| 1787848959 | 34.44° C | 53% | 1016 hPa | 0 mm | - | 757 W/m² | - |
| 1787848654 | 34.44° C | 55% | 1015.9 hPa | 0 mm | - | 737 W/m² | - |
| 1787848349 | 33.89° C | 54% | 1016 hPa | 0 mm | - | 726 W/m² | - |
| 1787848049 | 33.89° C | 56% | 1016.1 hPa | 0 mm | - | 711 W/m² | - |
| 1787847750 | 33.89° C | 55% | 1015.9 hPa | 0 mm | - | 702 W/m² | - |
| 1787847450 | 33.89° C | 56% | 1015.9 hPa | 0 mm | - | 690 W/m² | - |
| 1787847146 | 33.33° C | 57% | 1016 hPa | 0 mm | - | 676 W/m² | - |
| 1787846842 | 33.89° C | 57% | 1016 hPa | 0 mm | - | 666 W/m² | - |
| 1787846541 | 33.33° C | 57% | 1015.9 hPa | 0 mm | - | 651 W/m² | - |
| 1787846237 | 33.33° C | 56% | 1016 hPa | 0 mm | - | 642 W/m² | - |
| 1787845934 | 33.89° C | 56% | 1015.8 hPa | 0 mm | - | 638 W/m² | - |
| 1787845628 | 32.78° C | 57% | 1015.7 hPa | 0 mm | - | 623 W/m² | - |
| 1787845328 | 33.33° C | 57% | 1015.8 hPa | 0 mm | - | 607 W/m² | - |
| 1787845024 | 33.33° C | 57% | 1015.8 hPa | 0 mm | - | 598 W/m² | - |
| 1787844719 | 33.33° C | 56% | 1015.5 hPa | 0 mm | - | 585 W/m² | - |
| 1787844418 | 33.33° C | 56% | 1015.6 hPa | 0 mm | - | 569 W/m² | - |
| 1787844114 | 32.78° C | 57% | 1015.4 hPa | 0 mm | - | 552 W/m² | - |
| 1787843808 | 32.22° C | 57% | 1015.6 hPa | 0 mm | - | 537 W/m² | - |
* Rain latest hour (hover to see other rain measurements)
** Current wind speed in m/s (hover to see current wind gust speed)